Simultaneous Nadir Overpasses (SNOs) Predictions

Prediction of SNOs between METOP-A and NOAA-19 Satellite Orbit:

Table of predicted SNOs for the next 14.0 days since TLE Epoch: 10/25/2019
Index Date (METOP-A) Time (METOP-A) Lat,Lon (METOP-A) SZA (METOP-A ) Date (NOAA-19) Time (NOAA-19) Lat,Lon (NOAA-19) SZA (NOAA-19 ) Distance(km) Time Diff (sec)
1 10/25/2019 23:50:33 80.05,-164.71 92.68 10/25/2019 23:49:22 80.05,-164.64 92.67 1.49 71
2 10/26/2019 00:41:14 -80.05, 2.61 87.31 10/26/2019 00:40:27 -80.04, 2.66 87.33 1.09 47
3 10/26/2019 01:31:55 80.04, 169.83 92.69 10/26/2019 01:31:23 80.05, 169.78 92.69 2.09 32
4 10/26/2019 02:22:36 -80.04, -22.84 87.31 10/26/2019 02:22:28 -80.05, -22.92 87.30 2.06 8
5 10/26/2019 03:13:17 80.03, 144.38 92.69 10/26/2019 03:13:23 80.04, 144.51 92.71 2.77 6
6 10/26/2019 04:03:58 -80.03, -48.29 87.30 10/26/2019 04:04:28 -80.03, -48.19 87.28 2.05 30
7 10/26/2019 04:54:38 80.05, 119.23 92.75 10/26/2019 04:55:23 80.02, 119.24 92.73 2.84 45
8 10/26/2019 05:45:20 -80.02, -73.74 87.29 10/26/2019 05:46:29 -80.04, -73.77 87.26 2.66 69
9 11/06/2019 00:13:21 -80.09, 9.77 83.72 11/06/2019 00:12:17 -80.06, 9.85 83.75 2.85 64
10 11/06/2019 01:04:02 80.07, 176.94 96.28 11/06/2019 01:03:13 80.09, 176.83 96.27 2.61 49
11 11/06/2019 01:54:43 -80.08, -15.68 83.71 11/06/2019 01:54:18 -80.07, -15.74 83.72 1.17 25
12 11/06/2019 02:45:24 80.06, 151.48 96.28 11/06/2019 02:45:13 80.07, 151.57 96.29 1.89 11
13 11/06/2019 03:36:04 -80.06, -41.14 83.71 11/06/2019 03:36:17 -80.05, -41.01 83.71 2.69 13
14 11/06/2019 04:26:44 80.08, 126.33 96.33 11/06/2019 04:27:12 80.05, 126.30 96.31 2.93 28
15 11/06/2019 05:17:26 -80.05, -66.59 83.70 11/06/2019 05:18:18 -80.06, -66.59 83.68 0.88 52




NCC Satellite Simultaneous Nadir Overpasses (SNOs) Prediction Service
